Regional Weather Roundup
Issued by NWS

Home | Current Version | Previous Version | Text Only | Print | Product List | Glossary On
Versions: 1 2 3 4 5 6 7 8 9 10 11 12 13 14 15 16 17 18 19 20 21 22 23 24 25 26 27 28 29 30 31 32 33 34 35 36 37 38 39 40 41 42 43 44 45 46 47 48 49 50
000
ASUS43 KLSX 261907
RWRMO

WEATHER SUMMARY FOR MISSOURI
NATIONAL WEATHER SERVICE SPRINGFIELD MO
100 PM CST THU FEB 26 2015

NOTE: "FAIR" INDICATES FEW OR NO CLOUDS BELOW 12,000 FEET WITH NO
       SIGNIFICANT WEATHER AND/OR OBSTRUCTIONS TO VISIBILITY.
       CURRENT SKY AND/OR WEATHER CONDITIONS ARE NOT AVAILABLE FOR
       CHILLICOTHE AND FARMINGTON.

MOZ001>031-035>038-043-044-053-054-262000-
...NORTHERN AND WESTERN MISSOURI...

CITY           SKY/WX    TMP DP  RH WIND       PRES   REMARKS
KANSAS CTY INT MOSUNNY   19   1  45 N18       30.41F WCI   4
KANSAS C DTWN  SUNNY     21   1  41 N12G21    30.42F WCI   9
LEE`S SUMMIT   SUNNY     19   1  45 NW16G26   30.41S WCI   4
ST JOSEPH      MOSUNNY   17   0  47 N18G26    30.47F WCI   1
CHILLICOTHE      N/A     17   1  49 N12G21    30.44S WCI   4
KIRKSVILLE     SUNNY     16   0  49 N15G24    30.37S WCI   1

$$
MOZ066>068-077>081-088>096-101>105-262000-
...SOUTHWEST MISSOURI...

CITY           SKY/WX    TMP DP  RH WIND       PRES   REMARKS
SPRINGFIELD    SUNNY     24   8  50 N13G25    30.28F WCI  12
JOPLIN         MOSUNNY   25   6  44 N17G26    30.36F WCI  12

$$
MOZ032>034-039>042-045>050-055>058-069>072-262000-
...CENTRAL MISSOURI...

CITY           SKY/WX    TMP DP  RH WIND       PRES   REMARKS
COLUMBIA       PTSUNNY   22   9  57 N14       30.31F WCI   9
JEFFERSON CITY CLOUDY    23   7  50 NW16      30.34S WCI  10
ROLLA          FLURRIES  20  11  68 N17G25    30.25S WCI   5
SEDALIA        SUNNY     22   5  48 N22G29    30.38S WCI   6
WHITEMAN AFB   SUNNY     21   1  42 N22       30.37F WCI   5
WARRENSBURG    SUNNY     21   1  42 NW14G23   30.40F WCI   8
OSAGE BEACH    CLOUDY    21  10  63 NW12G18   30.31F WCI   9

$$
MOZ051-052-059>065-262000-
...EAST CENTRAL MISSOURI...

CITY           SKY/WX    TMP DP  RH WIND       PRES   REMARKS
ST LOUIS INTL  FLURRIES  23  13  65 N13       30.27R WCI  11
SPIRIT OF STL  FLURRIES  23  14  68 NW17G23   30.28R WCI   9
ST CHARLES     CLOUDY    22  13  68 N16       30.28R WCI   8

$$
MOZ072>076-082>087-097>100-106>115-262000-
...SOUTH CENTRAL AND SOUTHEAST MISSOURI...

CITY           SKY/WX    TMP DP  RH WIND       PRES   REMARKS
CAPE GIRARDEAU CLOUDY    27  20  75 N20       30.20R WCI  13
FARMINGTON     CLOUDY    21  14  73 N17       30.24R WCI   7
POPLAR BLUFF   CLOUDY    29  18  63 N16       30.21R WCI  17
WEST PLAINS    CLOUDY    24  13  62 N15G23    30.24R WCI  11

$$


USA.gov is the U.S. government's official web portal to all federal, state and local government web resources and services.